Time,TemperatureF,DewpointF,PressureIn,WindDirection,WindDirectionDegrees,WindSpeedMPH,WindSpeedGustMPH,Humidity,HourlyPrecipIn,Conditions,Clouds,dailyrainin,SoftwareType,DateUTC
2013-08-31 00:04:00,76.8,57.2,30.81,SSE,160,13.0,13.0,50,0.00,PR,BKN,0.00,Misterhouse,2013-08-31 07:04:00,
2013-08-31 00:10:00,76.8,57.2,30.81,SSE,161,12.0,13.0,50,0.00,PR,BKN,0.00,Misterhouse,2013-08-31 07:10:00,
2013-08-31 00:16:00,76.8,57.2,30.81,SSW,195,15.0,15.0,51,0.00,PR,BKN,0.00,Misterhouse,2013-08-31 07:16:00,
2013-08-31 00:22:00,76.6,57.2,30.81,South,169,12.0,14.0,51,0.00,PR,BKN,0.00,Misterhouse,2013-08-31 07:22:00,
2013-08-31 00:28:00,76.8,57.2,30.81,SSE,156,12.0,12.0,51,0.00,PR,BKN,0.00,Misterhouse,2013-08-31 07:28:00,
2013-08-31 00:34:00,76.6,57.2,30.81,South,172,12.0,15.0,51,0.00,PR,BKN,0.00,Misterhouse,2013-08-31 07:34:00,
2013-08-31 00:40:00,76.6,57.2,30.81,South,177,14.0,17.0,51,0.00,PR,BKN,0.00,Misterhouse,2013-08-31 07:40:00,
2013-08-31 00:46:00,76.6,59.0,30.81,South,174,15.0,16.0,52,0.00,PR,BKN,0.00,Misterhouse,2013-08-31 07:46:00,
2013-08-31 00:52:00,76.6,59.0,30.81,South,178,14.0,17.0,53,0.00,PR,BKN,0.00,Misterhouse,2013-08-31 07:52:00,
2013-08-31 00:58:00,76.5,59.0,30.81,South,185,12.0,12.0,53,0.00,PR,BKN,0.00,Misterhouse,2013-08-31 07:58:00,
2013-08-31 01:04:00,76.5,59.0,30.81,SSE,162,11.0,12.0,53,0.00,PR,BKN,0.00,Misterhouse,2013-08-31 08:04:00,
2013-08-31 01:10:00,76.5,59.0,30.81,South,180,13.0,13.0,54,0.00,PR,BKN,0.00,Misterhouse,2013-08-31 08:10:00,
2013-08-31 01:16:00,76.5,59.0,30.81,South,184,14.0,14.0,53,0.00,PR,BKN,0.00,Misterhouse,2013-08-31 08:16:00,
2013-08-31 01:22:00,76.5,59.0,30.81,SSW,211,13.0,13.0,53,0.00,PR,BKN,0.00,Misterhouse,2013-08-31 08:22:00,
2013-08-31 01:28:00,76.6,59.0,30.81,South,175,14.0,16.0,53,0.00,PR,BKN,0.00,Misterhouse,2013-08-31 08:28:00,
2013-08-31 01:34:00,76.5,59.0,30.78,South,170,15.0,15.0,53,0.00,PR,BKN,0.00,Misterhouse,2013-08-31 08:34:00,
2013-08-31 01:40:00,76.5,59.0,30.78,SSW,197,13.0,13.0,53,0.00,PR,BKN,0.00,Misterhouse,2013-08-31 08:40:00,
2013-08-31 01:46:00,76.6,57.2,30.78,SSE,156,13.0,13.0,51,0.00,PR,BKN,0.00,Misterhouse,2013-08-31 08:46:00,
2013-08-31 01:52:00,76.6,57.2,30.78,South,177,13.0,15.0,50,0.00,PR,BKN,0.00,Misterhouse,2013-08-31 08:52:00,
2013-08-31 01:58:00,76.6,57.2,30.78,South,187,11.0,11.0,50,0.00,PR,BKN,0.00,Misterhouse,2013-08-31 08:58:00,
2013-08-31 02:04:00,76.6,57.2,30.78,SSE,167,12.0,15.0,50,0.00,PR,BKN,0.00,Misterhouse,2013-08-31 09:04:00,
2013-08-31 02:10:00,76.6,57.2,30.78,South,171,15.0,15.0,50,0.00,PR,BKN,0.00,Misterhouse,2013-08-31 09:10:00,
2013-08-31 02:16:00,76.6,57.2,30.78,South,183,13.0,13.0,49,0.00,PR,BKN,0.00,Misterhouse,2013-08-31 09:16:00,
2013-08-31 02:22:00,76.6,57.2,30.78,SSW,203,12.0,14.0,50,0.00,PR,BKN,0.00,Misterhouse,2013-08-31 09:22:00,
2013-08-31 02:28:00,76.6,57.2,30.78,South,182,13.0,13.0,50,0.00,PR,BKN,0.00,Misterhouse,2013-08-31 09:28:00,
2013-08-31 02:34:00,76.5,57.2,30.78,South,184,13.0,13.0,50,0.00,PR,BKN,0.00,Misterhouse,2013-08-31 09:34:00,
2013-08-31 02:40:00,76.6,57.2,30.78,SSE,163,13.0,17.0,50,0.00,PR,BKN,0.00,Misterhouse,2013-08-31 09:40:00,
2013-08-31 02:46:00,76.6,57.2,30.78,South,185,12.0,18.0,50,0.00,PR,BKN,0.00,Misterhouse,2013-08-31 09:46:00,
2013-08-31 02:52:00,76.6,57.2,30.78,South,184,13.0,13.0,49,0.00,PR,BKN,0.00,Misterhouse,2013-08-31 09:52:00,
2013-08-31 02:58:00,76.5,57.2,30.78,SSW,195,12.0,12.0,50,0.00,PR,BKN,0.00,Misterhouse,2013-08-31 09:58:00,
2013-08-31 03:04:00,76.5,57.2,30.78,South,191,12.0,12.0,50,0.00,PR,BKN,0.00,Misterhouse,2013-08-31 10:04:00,
2013-08-31 03:10:00,76.5,57.2,30.78,SSE,160,11.0,11.0,50,0.00,PR,BKN,0.00,Misterhouse,2013-08-31 10:10:00,
2013-08-31 03:16:00,76.3,57.2,30.78,South,189,9.0,12.0,51,0.00,PR,BKN,0.00,Misterhouse,2013-08-31 10:16:00,
2013-08-31 03:22:00,76.1,59.0,30.78,South,183,12.0,12.0,52,0.00,PR,BKN,0.00,Misterhouse,2013-08-31 10:22:00,
2013-08-31 03:28:00,76.3,59.0,30.78,South,183,8.0,8.0,52,0.00,PR,BKN,0.00,Misterhouse,2013-08-31 10:28:00,
2013-08-31 03:34:00,76.5,59.0,30.78,SSW,192,9.0,13.0,52,0.00,PR,BKN,0.00,Misterhouse,2013-08-31 10:34:00,
2013-08-31 03:40:00,76.5,59.0,30.78,SSW,200,11.0,12.0,53,0.00,PR,BKN,0.00,Misterhouse,2013-08-31 10:40:00,
2013-08-31 03:46:00,76.5,59.0,30.78,SSW,207,12.0,15.0,53,0.00,PR,BKN,0.00,Misterhouse,2013-08-31 10:46:00,
2013-08-31 03:52:00,76.3,59.0,30.78,SSE,159,12.0,13.0,53,0.00,PR,BKN,0.00,Misterhouse,2013-08-31 10:52:00,
2013-08-31 03:58:00,76.5,59.0,30.78,South,187,11.0,11.0,53,0.00,PR,BKN,0.00,Misterhouse,2013-08-31 10:58:00,
2013-08-31 04:04:00,76.5,59.0,30.78,South,169,10.0,13.0,55,0.00,PR,BKN,0.00,Misterhouse,2013-08-31 11:04:00,
2013-08-31 04:10:00,76.5,60.8,30.78,South,189,11.0,13.0,56,0.00,PR,BKN,0.00,Misterhouse,2013-08-31 11:10:00,
2013-08-31 04:16:00,76.5,60.8,30.78,South,191,9.0,9.0,57,0.00,PR,BKN,0.00,Misterhouse,2013-08-31 11:16:00,
2013-08-31 04:22:00,76.5,60.8,30.78,South,169,8.0,11.0,57,0.00,PR,BKN,0.00,Misterhouse,2013-08-31 11:22:00,
2013-08-31 04:28:00,76.3,60.8,30.78,South,173,11.0,11.0,57,0.00,PR,BKN,0.00,Misterhouse,2013-08-31 11:28:00,
2013-08-31 04:34:00,76.3,60.8,30.78,South,169,11.0,11.0,58,0.00,PR,BKN,0.00,Misterhouse,2013-08-31 11:34:00,
2013-08-31 04:40:00,76.3,62.6,30.78,SSE,168,10.0,10.0,59,0.00,PR,BKN,0.00,Misterhouse,2013-08-31 11:40:00,
2013-08-31 04:46:00,76.3,62.6,30.78,SSE,164,11.0,11.0,61,0.00,PR,BKN,0.00,Misterhouse,2013-08-31 11:46:00,
2013-08-31 04:52:00,76.1,62.6,30.78,South,191,13.0,13.0,61,0.00,PR,BKN,0.00,Misterhouse,2013-08-31 11:52:00,
2013-08-31 04:58:00,76.1,62.6,30.78,SSW,195,13.0,13.0,61,0.00,PR,BKN,0.00,Misterhouse,2013-08-31 11:58:00,
2013-08-31 05:04:00,76.1,62.6,30.78,South,171,11.0,13.0,62,0.00,PR,BKN,0.00,Misterhouse,2013-08-31 12:04:00,
2013-08-31 05:10:00,76.1,62.6,30.78,SSE,160,12.0,13.0,62,0.00,PR,BKN,0.00,Misterhouse,2013-08-31 12:10:00,
2013-08-31 05:16:00,76.1,62.6,30.78,SSE,160,11.0,16.0,62,0.00,PR,BKN,0.00,Misterhouse,2013-08-31 12:16:00,
2013-08-31 05:22:00,76.1,62.6,30.78,SSE,164,13.0,15.0,62,0.00,PR,BKN,0.00,Misterhouse,2013-08-31 12:22:00,
2013-08-31 05:28:00,76.1,62.6,30.78,SSE,166,13.0,13.0,62,0.00,PR,BKN,0.00,Misterhouse,2013-08-31 12:28:00,
2013-08-31 05:34:00,76.1,62.6,30.78,South,191,12.0,12.0,62,0.00,PR,BKN,0.00,Misterhouse,2013-08-31 12:34:00,
2013-08-31 05:40:00,76.1,62.6,30.78,SE,139,12.0,13.0,61,0.00,PR,BKN,0.00,Misterhouse,2013-08-31 12:40:00,
2013-08-31 05:46:00,75.9,60.8,30.78,South,182,13.0,15.0,61,0.00,PR,BKN,0.00,Misterhouse,2013-08-31 12:46:00,
2013-08-31 05:52:00,75.9,60.8,30.78,South,180,15.0,15.0,61,0.00,PR,BKN,0.00,Misterhouse,2013-08-31 12:52:00,
2013-08-31 05:58:00,75.9,60.8,30.78,South,177,14.0,15.0,60,0.00,PR,BKN,0.00,Misterhouse,2013-08-31 12:58:00,
2013-08-31 06:04:00,75.9,60.8,30.78,South,184,13.0,14.0,60,0.00,PR,BKN,0.00,Misterhouse,2013-08-31 13:04:00,
2013-08-31 06:10:00,75.9,60.8,30.78,South,191,13.0,13.0,61,0.00,PR,BKN,0.00,Misterhouse,2013-08-31 13:10:00,
2013-08-31 06:16:00,76.1,62.6,30.78,SSW,194,15.0,15.0,62,0.00,PR,BKN,0.00,Misterhouse,2013-08-31 13:16:00,
2013-08-31 06:22:00,75.9,62.6,30.78,SSE,164,13.0,13.0,63,0.00,PR,BKN,0.00,Misterhouse,2013-08-31 13:22:00,
2013-08-31 06:28:00,75.9,60.8,30.78,South,174,12.0,15.0,62,0.00,PR,BKN,0.00,Misterhouse,2013-08-31 13:28:00,
2013-08-31 06:34:00,76.1,62.6,30.78,SSW,203,13.0,15.0,61,0.00,PR,BKN,0.00,Misterhouse,2013-08-31 13:34:00,
2013-08-31 06:40:00,76.1,62.6,30.78,South,186,13.0,13.0,60,0.00,PR,BKN,0.00,Misterhouse,2013-08-31 13:40:00,
2013-08-31 06:46:00,76.1,62.6,30.78,South,180,15.0,15.0,60,0.00,PR,BKN,0.00,Misterhouse,2013-08-31 13:46:00,
2013-08-31 06:52:00,76.1,62.6,30.78,South,188,11.0,13.0,59,0.00,PR,BKN,0.00,Misterhouse,2013-08-31 13:52:00,
2013-08-31 06:58:00,76.1,62.6,30.78,South,187,15.0,17.0,60,0.00,PR,BKN,0.00,Misterhouse,2013-08-31 13:58:00,
2013-08-31 07:04:00,76.1,62.6,30.78,SSE,149,12.0,12.0,60,0.00,PR,BKN,0.00,Misterhouse,2013-08-31 14:04:00,
2013-08-31 07:10:00,76.1,62.6,30.78,SSE,161,15.0,15.0,60,0.00,PR,BKN,0.00,Misterhouse,2013-08-31 14:10:00,
2013-08-31 07:16:00,76.1,60.8,30.78,SSE,153,13.0,13.0,58,0.00,PR,BKN,0.00,Misterhouse,2013-08-31 14:16:00,
2013-08-31 07:22:00,76.1,60.8,30.78,South,187,13.0,15.0,58,0.00,PR,BKN,0.00,Misterhouse,2013-08-31 14:22:00,
2013-08-31 07:28:00,76.1,62.6,30.78,South,171,10.0,13.0,59,0.00,PR,BKN,0.00,Misterhouse,2013-08-31 14:28:00,
2013-08-31 07:34:00,76.1,62.6,30.78,SSE,162,14.0,14.0,59,0.00,PR,BKN,0.00,Misterhouse,2013-08-31 14:34:00,
2013-08-31 07:40:00,76.3,60.8,30.78,SSE,159,13.0,15.0,58,0.00,PR,BKN,0.00,Misterhouse,2013-08-31 14:40:00,
2013-08-31 07:46:00,76.3,60.8,30.78,South,182,13.0,13.0,57,0.00,PR,BKN,0.00,Misterhouse,2013-08-31 14:46:00,
2013-08-31 07:52:00,76.3,60.8,30.78,SSW,202,13.0,13.0,57,0.00,PR,BKN,0.00,Misterhouse,2013-08-31 14:52:00,
2013-08-31 07:58:00,76.3,59.0,30.78,SSE,159,14.0,14.0,55,0.00,PR,BKN,0.00,Misterhouse,2013-08-31 14:58:00,
2013-08-31 08:04:00,76.5,59.0,30.78,South,175,13.0,13.0,53,0.00,PR,BKN,0.00,Misterhouse,2013-08-31 15:04:00,
2013-08-31 08:10:00,76.5,59.0,30.78,South,179,14.0,14.0,53,0.00,PR,BKN,0.00,Misterhouse,2013-08-31 15:10:00,
2013-08-31 08:16:00,76.5,59.0,30.78,South,172,11.0,13.0,54,0.00,PR,BKN,0.00,Misterhouse,2013-08-31 15:16:00,
2013-08-31 08:22:00,76.5,59.0,30.78,SSE,151,15.0,15.0,54,0.00,PR,BKN,0.00,Misterhouse,2013-08-31 15:22:00,
2013-08-31 08:28:00,76.5,59.0,30.78,SW,228,12.0,12.0,53,0.00,PR,BKN,0.00,Misterhouse,2013-08-31 15:28:00,
2013-08-31 08:34:00,76.6,57.2,30.81,SSW,205,13.0,19.0,51,0.00,PR,BKN,0.00,Misterhouse,2013-08-31 15:34:00,
2013-08-31 08:40:00,76.5,59.0,30.81,SSE,159,13.0,15.0,53,0.00,PR,BKN,0.00,Misterhouse,2013-08-31 15:40:00,
2013-08-31 08:46:00,76.6,59.0,30.81,South,176,10.0,10.0,54,0.00,PR,BKN,0.00,Misterhouse,2013-08-31 15:46:00,
2013-08-31 08:52:00,76.8,57.2,30.81,SSW,199,15.0,15.0,51,0.00,PR,BKN,0.00,Misterhouse,2013-08-31 15:52:00,
2013-08-31 08:58:00,76.8,55.4,30.81,SSW,196,12.0,12.0,48,0.00,PR,BKN,0.00,Misterhouse,2013-08-31 15:58:00,
2013-08-31 09:04:00,77.0,55.4,30.81,South,189,14.0,15.0,48,0.00,PR,BKN,0.00,Misterhouse,2013-08-31 16:04:00,
2013-08-31 09:10:00,77.0,55.4,30.81,South,179,13.0,13.0,47,0.00,PR,BKN,0.00,Misterhouse,2013-08-31 16:10:00,
2013-08-31 09:16:00,77.2,55.4,30.81,SSE,163,14.0,14.0,47,0.00,PR,BKN,0.00,Misterhouse,2013-08-31 16:16:00,
2013-08-31 09:22:00,77.4,55.4,30.81,SSW,200,11.0,11.0,46,0.00,PR,BKN,0.00,Misterhouse,2013-08-31 16:22:00,
2013-08-31 09:28:00,77.7,55.4,30.81,South,190,11.0,12.0,46,0.00,PR,BKN,0.00,Misterhouse,2013-08-31 16:28:00,
2013-08-31 09:34:00,78.3,55.4,30.81,SSW,204,8.0,9.0,45,0.00,PR,BKN,0.00,Misterhouse,2013-08-31 16:34:00,
2013-08-31 09:40:00,78.4,53.6,30.81,SSW,200,11.0,11.0,42,0.00,PR,BKN,0.00,Misterhouse,2013-08-31 16:40:00,
2013-08-31 09:46:00,78.6,53.6,30.81,SE,138,10.0,10.0,41,0.00,PR,BKN,0.00,Misterhouse,2013-08-31 16:46:00,
2013-08-31 09:52:00,79.3,51.8,30.81,South,181,10.0,11.0,40,0.00,PR,BKN,0.00,Misterhouse,2013-08-31 16:52:00,
2013-08-31 09:58:00,79.7,53.6,30.81,South,177,10.0,10.0,40,0.00,PR,BKN,0.00,Misterhouse,2013-08-31 16:58:00,
2013-08-31 10:04:00,79.5,48.2,30.81,SSW,202,11.0,11.0,35,0.00,PR,BKN,0.00,Misterhouse,2013-08-31 17:04:00,
2013-08-31 10:10:00,79.5,48.2,30.81,SSW,210,13.0,15.0,34,0.00,PR,BKN,0.00,Misterhouse,2013-08-31 17:10:00,
2013-08-31 10:16:00,81.0,46.4,30.81,WSW,248,11.0,11.0,31,0.00,PR,BKN,0.00,Misterhouse,2013-08-31 17:16:00,
2013-08-31 10:22:00,81.5,48.2,30.81,SW,223,11.0,11.0,30,0.00,PR,BKN,0.00,Misterhouse,2013-08-31 17:22:00,
2013-08-31 10:28:00,81.7,46.4,30.81,SSW,202,11.0,11.0,29,0.00,PR,BKN,0.00,Misterhouse,2013-08-31 17:28:00,
2013-08-31 10:34:00,81.0,44.6,30.81,SW,223,13.0,13.0,29,0.00,PR,BKN,0.00,Misterhouse,2013-08-31 17:34:00,
2013-08-31 10:40:00,80.6,46.4,30.81,South,181,10.0,11.0,30,0.00,PR,BKN,0.00,Misterhouse,2013-08-31 17:40:00,
2013-08-31 10:46:00,80.8,44.6,30.81,SSW,210,8.0,8.0,29,0.00,PR,BKN,0.00,Misterhouse,2013-08-31 17:46:00,
2013-08-31 10:52:00,80.6,46.4,30.81,SSW,193,11.0,11.0,30,0.00,PR,BKN,0.00,Misterhouse,2013-08-31 17:52:00,
2013-08-31 10:58:00,81.0,44.6,30.81,SW,223,9.0,9.0,29,0.00,PR,BKN,0.00,Misterhouse,2013-08-31 17:58:00,
2013-08-31 11:04:00,81.3,44.6,30.81,SSW,202,9.0,11.0,29,0.00,PR,BKN,0.00,Misterhouse,2013-08-31 18:04:00,
2013-08-31 11:10:00,82.0,44.6,30.81,SSW,209,9.0,11.0,26,0.00,PR,BKN,0.00,Misterhouse,2013-08-31 18:10:00,
2013-08-31 11:16:00,81.7,44.6,30.81,SSW,195,9.0,9.0,26,0.00,PR,BKN,0.00,Misterhouse,2013-08-31 18:16:00,
2013-08-31 11:22:00,81.5,42.8,30.81,SSW,213,11.0,13.0,25,0.00,PR,BKN,0.00,Misterhouse,2013-08-31 18:22:00,
2013-08-31 11:28:00,81.5,44.6,30.81,South,189,10.0,10.0,26,0.00,PR,BKN,0.00,Misterhouse,2013-08-31 18:28:00,
2013-08-31 11:34:00,82.0,42.8,30.81,SSW,193,10.0,10.0,24,0.00,PR,BKN,0.00,Misterhouse,2013-08-31 18:34:00,
2013-08-31 11:40:00,83.1,41.0,30.81,ESE,119,7.0,7.0,23,0.00,PR,BKN,0.00,Misterhouse,2013-08-31 18:40:00,
2013-08-31 11:46:00,82.8,39.2,30.81,SW,236,11.0,11.0,22,0.00,PR,BKN,0.00,Misterhouse,2013-08-31 18:46:00,
2013-08-31 11:52:00,82.8,41.0,30.81,WNW,285,8.0,8.0,23,0.00,PR,BKN,0.00,Misterhouse,2013-08-31 18:52:00,
2013-08-31 11:58:00,82.9,42.8,30.81,SW,218,10.0,13.0,24,0.00,PR,BKN,0.00,Misterhouse,2013-08-31 18:58:00,
2013-08-31 12:04:00,82.9,42.8,30.81,SSW,207,12.0,13.0,24,0.00,PR,BKN,0.00,Misterhouse,2013-08-31 19:04:00,
2013-08-31 12:10:00,84.2,42.8,30.81,South,172,7.0,7.0,23,0.00,PR,BKN,0.00,Misterhouse,2013-08-31 19:10:00,
2013-08-31 12:16:00,83.5,42.8,30.81,SW,230,10.0,10.0,24,0.00,PR,BKN,0.00,Misterhouse,2013-08-31 19:16:00,
2013-08-31 12:22:00,84.2,42.8,30.81,WSW,250,8.0,8.0,24,0.00,PR,BKN,0.00,Misterhouse,2013-08-31 19:22:00,
2013-08-31 12:28:00,84.6,44.6,30.81,SW,218,9.0,9.0,25,0.00,PR,BKN,0.00,Misterhouse,2013-08-31 19:28:00,
2013-08-31 12:34:00,84.7,42.8,30.78,South,181,6.0,9.0,24,0.00,PR,BKN,0.00,Misterhouse,2013-08-31 19:34:00,
2013-08-31 12:40:00,84.2,42.8,30.78,SW,231,9.0,11.0,23,0.00,PR,BKN,0.00,Misterhouse,2013-08-31 19:40:00,
2013-08-31 12:46:00,84.6,42.8,30.78,WSW,241,9.0,15.0,23,0.00,PR,BKN,0.00,Misterhouse,2013-08-31 19:46:00,
2013-08-31 12:52:00,84.2,42.8,30.78,SSW,192,9.0,9.0,23,0.00,PR,BKN,0.00,Misterhouse,2013-08-31 19:52:00,
2013-08-31 12:58:00,84.7,42.8,30.78,West,265,10.0,10.0,24,0.00,PR,BKN,0.00,Misterhouse,2013-08-31 19:58:00,
2013-08-31 13:04:00,84.7,42.8,30.78,SW,226,10.0,10.0,23,0.00,PR,BKN,0.00,Misterhouse,2013-08-31 20:04:00,
2013-08-31 13:10:00,86.5,42.8,30.78,South,186,6.0,10.0,22,0.00,PR,BKN,0.00,Misterhouse,2013-08-31 20:10:00,
2013-08-31 13:16:00,84.9,41.0,30.78,SSW,192,10.0,10.0,22,0.00,PR,BKN,0.00,Misterhouse,2013-08-31 20:16:00,
2013-08-31 13:22:00,85.1,44.6,30.78,South,183,14.0,14.0,23,0.00,PR,BKN,0.00,Misterhouse,2013-08-31 20:22:00,
2013-08-31 13:28:00,84.9,42.8,30.78,South,189,8.0,16.0,24,0.00,PR,BKN,0.00,Misterhouse,2013-08-31 20:28:00,
2013-08-31 13:34:00,85.1,44.6,30.78,SSW,205,11.0,15.0,23,0.00,PR,BKN,0.00,Misterhouse,2013-08-31 20:34:00,
2013-08-31 13:40:00,84.4,42.8,30.78,SSW,213,12.0,12.0,24,0.00,PR,BKN,0.00,Misterhouse,2013-08-31 20:40:00,
2013-08-31 13:46:00,84.6,42.8,30.78,SSW,200,14.0,16.0,24,0.00,PR,BKN,0.00,Misterhouse,2013-08-31 20:46:00,
2013-08-31 13:52:00,84.9,42.8,30.75,SSE,166,12.0,12.0,23,0.00,PR,BKN,0.00,Misterhouse,2013-08-31 20:52:00,
2013-08-31 13:58:00,85.3,44.6,30.75,SW,220,8.0,8.0,23,0.00,PR,BKN,0.00,Misterhouse,2013-08-31 20:58:00,
2013-08-31 14:04:00,85.3,42.8,30.75,WSW,253,11.0,13.0,22,0.00,PR,BKN,0.00,Misterhouse,2013-08-31 21:04:00,
2013-08-31 14:10:00,85.3,42.8,30.75,SSW,213,11.0,11.0,22,0.00,PR,BKN,0.00,Misterhouse,2013-08-31 21:10:00,
2013-08-31 14:16:00,85.8,44.6,30.75,WSW,246,13.0,13.0,23,0.00,PR,BKN,0.00,Misterhouse,2013-08-31 21:16:00,
2013-08-31 14:22:00,85.3,44.6,30.75,WSW,250,8.0,9.0,23,0.00,PR,BKN,0.00,Misterhouse,2013-08-31 21:22:00,
2013-08-31 14:28:00,85.1,44.6,30.75,SW,214,11.0,11.0,23,0.00,PR,BKN,0.00,Misterhouse,2013-08-31 21:28:00,
2013-08-31 14:34:00,85.6,46.4,30.75,SSW,203,10.0,17.0,26,0.00,PR,BKN,0.00,Misterhouse,2013-08-31 21:34:00,
2013-08-31 14:40:00,84.9,44.6,30.75,South,185,14.0,14.0,25,0.00,PR,BKN,0.00,Misterhouse,2013-08-31 21:40:00,
2013-08-31 14:46:00,84.4,46.4,30.75,SW,226,11.0,11.0,27,0.00,PR,BKN,0.00,Misterhouse,2013-08-31 21:46:00,
2013-08-31 14:52:00,84.4,46.4,30.75,SW,217,14.0,14.0,26,0.00,PR,BKN,0.00,Misterhouse,2013-08-31 21:52:00,
2013-08-31 14:58:00,85.1,46.4,30.75,SSE,153,12.0,12.0,26,0.00,PR,BKN,0.00,Misterhouse,2013-08-31 21:58:00,
2013-08-31 15:04:00,85.1,46.4,30.75,South,191,13.0,13.0,26,0.00,PR,BKN,0.00,Misterhouse,2013-08-31 22:04:00,
2013-08-31 15:10:00,84.7,42.8,30.75,SSW,199,11.0,14.0,24,0.00,PR,BKN,0.00,Misterhouse,2013-08-31 22:10:00,
2013-08-31 15:16:00,84.7,42.8,30.75,SW,224,13.0,13.0,24,0.00,PR,BKN,0.00,Misterhouse,2013-08-31 22:16:00,
2013-08-31 15:22:00,84.7,42.8,30.75,South,177,11.0,15.0,24,0.00,PR,BKN,0.00,Misterhouse,2013-08-31 22:22:00,
2013-08-31 15:28:00,84.0,48.2,30.75,WSW,247,9.0,9.0,28,0.00,PR,BKN,0.00,Misterhouse,2013-08-31 22:28:00,
2013-08-31 15:34:00,84.6,46.4,30.75,SSW,199,9.0,17.0,27,0.00,PR,BKN,0.00,Misterhouse,2013-08-31 22:34:00,
2013-08-31 15:40:00,84.4,46.4,30.75,SSW,211,13.0,20.0,27,0.00,PR,BKN,0.00,Misterhouse,2013-08-31 22:40:00,
2013-08-31 15:46:00,84.2,46.4,30.75,South,183,16.0,17.0,26,0.00,PR,BKN,0.00,Misterhouse,2013-08-31 22:46:00,
2013-08-31 15:52:00,83.5,48.2,30.75,SW,221,10.0,13.0,28,0.00,PR,BKN,0.00,Misterhouse,2013-08-31 22:52:00,
2013-08-31 15:58:00,83.7,48.2,30.75,SSE,159,14.0,20.0,29,0.00,PR,BKN,0.00,Misterhouse,2013-08-31 22:58:00,
2013-08-31 16:04:00,83.5,48.2,30.72,South,189,12.0,13.0,28,0.00,PR,BKN,0.00,Misterhouse,2013-08-31 23:04:00,
2013-08-31 16:10:00,83.7,48.2,30.72,West,260,13.0,13.0,29,0.00,PR,BKN,0.00,Misterhouse,2013-08-31 23:10:00,
2013-08-31 16:16:00,83.8,48.2,30.72,SSE,163,13.0,13.0,29,0.00,PR,BKN,0.00,Misterhouse,2013-08-31 23:16:00,
2013-08-31 16:22:00,83.8,48.2,30.72,SW,231,10.0,10.0,29,0.00,PR,BKN,0.00,Misterhouse,2013-08-31 23:22:00,
2013-08-31 16:28:00,84.0,48.2,30.72,SSW,206,10.0,10.0,28,0.00,PR,BKN,0.00,Misterhouse,2013-08-31 23:28:00,
2013-08-31 16:34:00,84.0,48.2,30.72,SSW,204,11.0,13.0,28,0.00,PR,BKN,0.00,Misterhouse,2013-08-31 23:34:00,
2013-08-31 16:40:00,84.0,48.2,30.72,South,183,8.0,13.0,28,0.00,PR,BKN,0.00,Misterhouse,2013-08-31 23:40:00,
2013-08-31 16:46:00,84.0,48.2,30.72,South,174,9.0,10.0,28,0.00,PR,BKN,0.00,Misterhouse,2013-08-31 23:46:00,
2013-08-31 16:52:00,84.0,48.2,30.72,South,180,10.0,13.0,29,0.00,PR,BKN,0.00,Misterhouse,2013-08-31 23:52:00,
2013-08-31 16:58:00,83.7,48.2,30.72,South,181,11.0,15.0,29,0.00,PR,BKN,0.00,Misterhouse,2013-08-31 23:58:00,
2013-08-31 17:04:00,83.5,48.2,30.72,SSE,156,12.0,17.0,29,0.00,PR,BKN,0.00,Misterhouse,2013-09-01 00:04:00,
2013-08-31 17:10:00,83.1,48.2,30.72,SW,231,11.0,11.0,30,0.00,PR,BKN,0.00,Misterhouse,2013-09-01 00:10:00,
2013-08-31 17:16:00,83.1,48.2,30.72,South,186,13.0,17.0,30,0.00,PR,BKN,0.00,Misterhouse,2013-09-01 00:16:00,
2013-08-31 17:22:00,83.1,48.2,30.72,South,181,13.0,13.0,30,0.00,PR,BKN,0.00,Misterhouse,2013-09-01 00:22:00,
2013-08-31 17:28:00,82.2,48.2,30.72,SW,218,15.0,15.0,31,0.00,PR,BKN,0.00,Misterhouse,2013-09-01 00:28:00,
2013-08-31 17:34:00,82.0,50.0,30.72,South,172,13.0,15.0,32,0.00,PR,BKN,0.00,Misterhouse,2013-09-01 00:34:00,
2013-08-31 17:40:00,81.9,50.0,30.72,SSE,168,11.0,11.0,32,0.00,PR,BKN,0.00,Misterhouse,2013-09-01 00:40:00,
2013-08-31 17:46:00,82.4,48.2,30.72,SW,236,12.0,23.0,31,0.00,PR,BKN,0.00,Misterhouse,2013-09-01 00:46:00,
2013-08-31 17:52:00,81.9,50.0,30.72,SSW,194,9.0,9.0,32,0.00,PR,BKN,0.00,Misterhouse,2013-09-01 00:52:00,
2013-08-31 17:58:00,81.3,48.2,30.72,South,190,17.0,17.0,32,0.00,PR,BKN,0.00,Misterhouse,2013-09-01 00:58:00,
2013-08-31 18:04:00,81.1,48.2,30.72,WSW,258,9.0,9.0,33,0.00,PR,BKN,0.00,Misterhouse,2013-09-01 01:04:00,
2013-08-31 18:10:00,80.8,50.0,30.72,SW,233,11.0,11.0,34,0.00,PR,BKN,0.00,Misterhouse,2013-09-01 01:10:00,
2013-08-31 18:16:00,80.6,50.0,30.72,SSW,200,14.0,14.0,35,0.00,PR,BKN,0.00,Misterhouse,2013-09-01 01:16:00,
2013-08-31 18:22:00,80.4,51.8,30.72,SW,223,12.0,12.0,36,0.00,PR,BKN,0.00,Misterhouse,2013-09-01 01:22:00,
2013-08-31 18:28:00,80.4,51.8,30.72,SSW,207,9.0,13.0,36,0.00,PR,BKN,0.00,Misterhouse,2013-09-01 01:28:00,
2013-08-31 18:34:00,79.9,51.8,30.72,SSW,213,12.0,13.0,36,0.00,PR,BKN,0.00,Misterhouse,2013-09-01 01:34:00,
2013-08-31 18:40:00,79.5,50.0,30.72,SW,215,12.0,12.0,37,0.00,PR,BKN,0.00,Misterhouse,2013-09-01 01:40:00,
2013-08-31 18:46:00,79.3,51.8,30.72,SSW,210,11.0,13.0,38,0.00,PR,BKN,0.00,Misterhouse,2013-09-01 01:46:00,
2013-08-31 18:52:00,79.0,51.8,30.72,SSW,196,13.0,15.0,39,0.00,PR,BKN,0.00,Misterhouse,2013-09-01 01:52:00,
2013-08-31 18:58:00,78.6,51.8,30.72,SSW,205,12.0,13.0,40,0.00,PR,BKN,0.00,Misterhouse,2013-09-01 01:58:00,
2013-08-31 19:04:00,78.3,53.6,30.75,SSW,193,11.0,11.0,41,0.00,PR,BKN,0.00,Misterhouse,2013-09-01 02:04:00,
2013-08-31 19:10:00,77.9,53.6,30.75,South,185,10.0,14.0,41,0.00,PR,BKN,0.00,Misterhouse,2013-09-01 02:10:00,
2013-08-31 19:16:00,77.7,51.8,30.75,South,185,11.0,15.0,41,0.00,PR,BKN,0.00,Misterhouse,2013-09-01 02:16:00,
2013-08-31 19:22:00,77.5,51.8,30.75,South,191,12.0,13.0,42,0.00,PR,BKN,0.00,Misterhouse,2013-09-01 02:22:00,
2013-08-31 19:28:00,77.4,51.8,30.75,SSW,195,13.0,13.0,42,0.00,PR,BKN,0.00,Misterhouse,2013-09-01 02:28:00,
2013-08-31 19:34:00,77.2,51.8,30.75,SSW,210,10.0,10.0,42,0.00,PR,BKN,0.00,Misterhouse,2013-09-01 02:34:00,
2013-08-31 19:40:00,77.0,53.6,30.75,South,174,12.0,12.0,43,0.00,PR,BKN,0.00,Misterhouse,2013-09-01 02:40:00,
2013-08-31 19:46:00,76.8,53.6,30.75,SSW,195,10.0,14.0,44,0.00,PR,BKN,0.00,Misterhouse,2013-09-01 02:46:00,
2013-08-31 19:52:00,77.0,53.6,30.75,SSE,153,10.0,12.0,45,0.00,PR,BKN,0.00,Misterhouse,2013-09-01 02:52:00,
2013-08-31 19:58:00,76.8,55.4,30.75,SSE,165,11.0,11.0,46,0.00,PR,BKN,0.00,Misterhouse,2013-09-01 02:58:00,
2013-08-31 20:04:00,76.8,55.4,30.75,South,169,12.0,13.0,47,0.00,PR,BKN,0.00,Misterhouse,2013-09-01 03:04:00,
2013-08-31 20:10:00,76.8,55.4,30.75,South,182,11.0,11.0,47,0.00,PR,BKN,0.00,Misterhouse,2013-09-01 03:10:00,
2013-08-31 20:16:00,76.6,55.4,30.75,South,181,13.0,16.0,48,0.00,PR,BKN,0.00,Misterhouse,2013-09-01 03:16:00,
2013-08-31 20:22:00,76.6,55.4,30.75,SSW,193,12.0,15.0,48,0.00,PR,BKN,0.00,Misterhouse,2013-09-01 03:22:00,
2013-08-31 20:28:00,76.5,57.2,30.75,South,171,12.0,15.0,49,0.00,PR,BKN,0.00,Misterhouse,2013-09-01 03:28:00,
2013-08-31 20:34:00,76.5,57.2,30.78,SSE,165,13.0,13.0,49,0.00,PR,BKN,0.00,Misterhouse,2013-09-01 03:34:00,
2013-08-31 20:40:00,76.5,57.2,30.78,SSW,192,14.0,14.0,51,0.00,PR,BKN,0.00,Misterhouse,2013-09-01 03:40:00,
2013-08-31 20:46:00,76.5,59.0,30.78,SSW,203,14.0,15.0,52,0.00,PR,BKN,0.00,Misterhouse,2013-09-01 03:46:00,
2013-08-31 20:52:00,76.3,59.0,30.78,SSW,202,11.0,15.0,53,0.00,PR,BKN,0.00,Misterhouse,2013-09-01 03:52:00,
2013-08-31 20:58:00,76.3,59.0,30.78,South,181,12.0,15.0,54,0.00,PR,BKN,0.00,Misterhouse,2013-09-01 03:58:00,
2013-08-31 21:02:00,76.3,59.0,30.78,SSW,201,11.0,13.0,54,0.00,PR,BKN,0.00,Misterhouse,2013-09-01 04:02:00,
2013-08-31 21:04:00,76.1,59.0,30.78,SSW,207,12.0,13.0,54,0.00,PR,BKN,0.00,Misterhouse,2013-09-01 04:04:00,
2013-08-31 21:06:00,76.1,59.0,30.78,South,177,13.0,13.0,55,0.00,PR,BKN,0.00,Misterhouse,2013-09-01 04:06:00,
2013-08-31 21:08:00,76.1,59.0,30.78,South,173,13.0,15.0,54,0.00,PR,BKN,0.00,Misterhouse,2013-09-01 04:08:00,
2013-08-31 21:14:00,75.9,57.2,30.78,SSE,166,13.0,13.0,54,0.00,PR,BKN,0.00,Misterhouse,2013-09-01 04:14:00,
2013-08-31 21:20:00,76.1,59.0,30.78,South,187,14.0,17.0,55,0.00,PR,BKN,0.00,Misterhouse,2013-09-01 04:20:00,
2013-08-31 21:26:00,76.1,60.8,30.78,SSW,203,13.0,15.0,56,0.00,PR,BKN,0.00,Misterhouse,2013-09-01 04:26:00,
2013-08-31 21:32:00,76.1,60.8,30.78,SE,133,13.0,13.0,56,0.00,PR,BKN,0.00,Misterhouse,2013-09-01 04:32:00,
2013-08-31 21:38:00,76.1,60.8,30.78,SSE,167,11.0,11.0,56,0.00,PR,BKN,0.00,Misterhouse,2013-09-01 04:38:00,
2013-08-31 21:40:00,76.1,60.8,30.78,South,172,11.0,13.0,57,0.00,PR,BKN,0.00,Misterhouse,2013-09-01 04:40:00,
2013-08-31 21:46:00,75.9,59.0,30.78,South,179,12.0,12.0,57,0.00,PR,BKN,0.00,Misterhouse,2013-09-01 04:46:00,
2013-08-31 21:52:00,75.9,60.8,30.78,SSE,167,11.0,11.0,60,0.00,PR,BKN,0.00,Misterhouse,2013-09-01 04:52:00,
2013-08-31 21:58:00,75.9,62.6,30.78,South,186,11.0,13.0,63,0.00,PR,BKN,0.00,Misterhouse,2013-09-01 04:58:00,
2013-08-31 22:04:00,75.9,62.6,30.78,South,169,9.0,10.0,65,0.00,PR,BKN,0.00,Misterhouse,2013-09-01 05:04:00,
2013-08-31 22:10:00,75.7,62.6,30.78,SSW,211,10.0,13.0,66,0.00,PR,BKN,0.00,Misterhouse,2013-09-01 05:10:00,
2013-08-31 22:16:00,75.9,64.4,30.78,South,189,11.0,11.0,67,0.00,PR,BKN,0.00,Misterhouse,2013-09-01 05:16:00,
2013-08-31 22:22:00,75.9,64.4,30.78,SSE,159,11.0,11.0,68,0.00,PR,BKN,0.00,Misterhouse,2013-09-01 05:22:00,
2013-08-31 22:28:00,75.9,64.4,30.78,South,176,10.0,13.0,68,0.00,PR,BKN,0.00,Misterhouse,2013-09-01 05:28:00,
2013-08-31 22:34:00,75.7,64.4,30.78,SSW,204,9.0,11.0,67,0.00,PR,BKN,0.00,Misterhouse,2013-09-01 05:34:00,
2013-08-31 22:40:00,75.7,64.4,30.78,South,191,8.0,9.0,68,0.00,PR,BKN,0.00,Misterhouse,2013-09-01 05:40:00,
2013-08-31 22:46:00,75.7,64.4,30.78,SSW,199,7.0,7.0,69,0.00,PR,BKN,0.00,Misterhouse,2013-09-01 05:46:00,
2013-08-31 22:52:00,75.7,64.4,30.78,South,174,9.0,9.0,69,0.00,PR,BKN,0.00,Misterhouse,2013-09-01 05:52:00,
2013-08-31 22:58:00,75.9,64.4,30.78,South,182,8.0,11.0,70,0.00,PR,BKN,0.00,Misterhouse,2013-09-01 05:58:00,
2013-08-31 23:04:00,75.9,64.4,30.78,WSW,237,8.0,10.0,71,0.00,PR,BKN,0.00,Misterhouse,2013-09-01 06:04:00,
2013-08-31 23:10:00,75.9,64.4,30.78,South,184,6.0,6.0,71,0.00,PR,BKN,0.00,Misterhouse,2013-09-01 06:10:00,
2013-08-31 23:16:00,75.9,64.4,30.78,SSE,160,8.0,8.0,71,0.00,PR,BKN,0.00,Misterhouse,2013-09-01 06:16:00,
2013-08-31 23:22:00,75.9,64.4,30.78,SW,214,8.0,9.0,71,0.00,PR,BKN,0.00,Misterhouse,2013-09-01 06:22:00,
2013-08-31 23:28:00,75.9,66.2,30.78,SSW,201,6.0,8.0,72,0.00,PR,BKN,0.00,Misterhouse,2013-09-01 06:28:00,
2013-08-31 23:34:00,75.9,66.2,30.78,SSW,200,7.0,7.0,72,0.00,PR,BKN,0.00,Misterhouse,2013-09-01 06:34:00,
2013-08-31 23:40:00,75.9,66.2,30.78,South,186,8.0,8.0,72,0.00,PR,BKN,0.00,Misterhouse,2013-09-01 06:40:00,
2013-08-31 23:46:00,75.7,66.2,30.78,SSW,210,9.0,13.0,72,0.00,PR,BKN,0.00,Misterhouse,2013-09-01 06:46:00,
2013-08-31 23:52:00,75.4,64.4,30.78,SSE,168,9.0,13.0,68,0.00,PR,BKN,0.00,Misterhouse,2013-09-01 06:52:00,
2013-08-31 23:58:00,75.7,64.4,30.78,SW,220,8.0,8.0,70,0.00,PR,BKN,0.00,Misterhouse,2013-09-01 06:58:00,